Waarnemingen

Advertentie
Mijn weer
Gourette, Frankrijk (7775): temperatuur & dauwpunt: 18.04.2018 10:00:00 - 24.04.2018 10:00:00 (CEST)Gourette, Frankrijk (7775): windsnelheid & windstoten: 18.04.2018 10:00:00 - 24.04.2018 10:00:00 (CEST)Gourette, Frankrijk (7775): windrichting: 18.04.2018 10:00:00 - 24.04.2018 10:00:00 (CEST)Gourette, Frankrijk (7775): luchtdruk: 18.04.2018 10:00:00 - 24.04.2018 10:00:00 (CEST)Gourette, Frankrijk (7775): zicht: 18.04.2018 10:00:00 - 24.04.2018 10:00:00 (CEST)Gourette, Frankrijk (7775): neerslag: 18.04.2018 10:00:00 - 24.04.2018 10:00:00 (CEST)
Datum & Tijd tt [°C] td [°C] ff [km/u] ff [kn] fx [km/u] fx [kn] dd ppp [hPa] vv [km] rr [mm]
24.04.2018 10:00:00 20,9 9,5 10 5 16 8 O 1018,8 - 0,0
24.04.2018 09:00:00 20,1 11,6 0 0 8 4 N 1018,5 - 0,0
24.04.2018 08:00:00 17,1 12,2 7 4 11 6 ZW 1018,5 10 0,0
24.04.2018 07:00:00 16,7 13,4 2 1 11 6 ZZO 1017,8 - 0,0
24.04.2018 06:00:00 16,6 13,7 6 3 14 7 N 1017,7 - 0,0
24.04.2018 05:00:00 15,7 11,5 11 6 17 9 NNW 1018,0 11 0,0
24.04.2018 04:00:00 16,4 13,3 3 2 8 4 NO 1017,8 - 0,0
24.04.2018 03:00:00 15,7 11,7 6 3 8 4 ZZW 1017,5 - 0,0
24.04.2018 02:00:00 16,1 12,3 3 2 10 5 O 1018,1 - 0,0
24.04.2018 01:00:00 16,4 10,3 11 6 14 8 N 1018,7 - 0,0
24.04.2018 00:00:00 16,9 13,4 5 3 7 4 NNO 1018,7 - 0,0
23.04.2018 23:00:00 17,2 13,3 5 3 6 3 ZZO 1018,6 - 0,0
23.04.2018 22:00:00 17,6 11,6 4 2 5 3 O 1018,6 - 0,0
23.04.2018 21:00:00 17,7 11,3 4 2 7 4 WZW 1018,4 - 0,0
23.04.2018 20:00:00 18,7 13,3 6 3 8 4 Z 1018,0 - 0,0
23.04.2018 19:00:00 19,8 12,1 6 3 10 5 Z 1018,0 - 0,0
23.04.2018 18:00:00 21,0 11,3 5 3 12 7 ZZO 1018,2 - 0,0
23.04.2018 17:00:00 21,5 11,8 7 4 15 8 ZZO 1018,0 - 0,0
23.04.2018 16:00:00 21,9 14,8 8 4 16 9 ZO 1018,5 - 0,0
23.04.2018 15:00:00 21,9 13,8 10 6 19 10 ZZO 1019,0 - 0,0
23.04.2018 14:00:00 22,3 12,3 12 6 19 10 ZO 1019,2 - 0,0
23.04.2018 13:00:00 22,2 11,6 14 7 23 12 ZO 1019,5 - 0,0
23.04.2018 12:00:00 21,4 12,5 14 7 21 12 ZZO 1019,9 - 0,0
23.04.2018 11:00:00 21,2 13,6 11 6 19 11 ZZO 1019,8 - 0,0
23.04.2018 10:00:00 19,8 15,6 5 3 11 6 O 1019,7 - 0,0
23.04.2018 09:00:00 18,8 13,2 3 2 6 4 Z 1019,4 - 0,0
23.04.2018 08:00:00 15,7 11,3 3 2 10 6 NNW 1019,3 15 0,0
23.04.2018 07:00:00 14,9 12,0 10 5 14 7 N 1018,9 - 0,0
23.04.2018 06:00:00 14,8 10,4 10 6 18 10 NNW 1018,6 - 0,0
23.04.2018 05:00:00 15,2 11,6 13 7 17 9 N 1018,6 15 0,0
23.04.2018 04:00:00 15,9 11,5 14 8 17 9 N 1018,6 - 0,0
23.04.2018 03:00:00 14,9 12,4 13 7 18 10 N 1018,6 - 0,0
23.04.2018 02:00:00 15,1 13,3 14 8 16 9 N 1018,9 - 0,0
23.04.2018 01:00:00 16,2 12,0 9 5 11 6 N 1019,1 - 0,0
23.04.2018 00:00:00 15,5 13,3 8 4 14 8 ZZW 1019,0 - 0,0
22.04.2018 23:00:00 15,9 15,3 9 5 16 8 Z 1019,0 - 0,0
22.04.2018 22:00:00 16,0 15,2 10 6 13 7 Z 1018,9 - 0,0
22.04.2018 21:00:00 16,8 15,7 4 2 5 3 ZW 1018,4 - 0,0
22.04.2018 20:00:00 18,0 15,4 4 2 6 3 O 1017,8 - 0,0
22.04.2018 19:00:00 19,8 16,2 4 2 11 6 O 1017,6 - 0,0
22.04.2018 18:00:00 20,7 16,1 8 4 13 7 O 1017,5 - 0,0
22.04.2018 17:00:00 21,8 15,9 8 4 16 9 ONO 1017,5 15 0,0
22.04.2018 16:00:00 21,7 14,6 9 5 17 9 ONO 1017,9 - 0,0
22.04.2018 15:00:00 22,5 13,6 7 4 16 9 O 1018,2 - 0,0
22.04.2018 14:00:00 22,7 13,2 8 5 16 8 O 1018,3 - 0,0
22.04.2018 13:00:00 22,3 15,9 6 4 15 8 ZO 1018,5 - 0,0
22.04.2018 12:00:00 21,5 15,1 7 4 17 9 ZO 1018,8 - 0,0
22.04.2018 11:00:00 20,5 13,5 9 5 15 8 O 1018,8 12 0,0
22.04.2018 10:00:00 21,4 13,3 5 3 13 7 O 1018,3 - 0,0
22.04.2018 09:00:00 19,6 11,4 8 4 14 7 NNO 1018,1 - 0,0
22.04.2018 08:00:00 16,9 7,5 12 7 19 10 N 1018,1 - 0,0
22.04.2018 07:00:00 17,6 6,5 4 2 8 4 NO 1017,7 - 0,0
22.04.2018 06:00:00 16,8 6,0 8 4 10 6 ZZW 1017,5 - 0,0
22.04.2018 05:00:00 16,7 5,9 5 3 11 6 WZW 1017,8 - 0,0
22.04.2018 04:00:00 15,8 6,0 9 5 13 7 N 1017,9 - 0,0
22.04.2018 03:00:00 16,4 5,6 8 4 10 5 O 1018,1 - 0,0
22.04.2018 02:00:00 16,3 6,7 6 4 9 5 WZW 1018,3 - 0,0
22.04.2018 01:00:00 18,6 5,8 6 4 11 6 NNW 1018,6 - 0,0
22.04.2018 00:00:00 19,2 8,2 2 1 6 3 ZO 1018,6 - 0,0
21.04.2018 23:00:00 20,1 8,4 2 1 4 2 ZO 1018,3 - 0,0
21.04.2018 22:00:00 20,1 7,5 0 0 11 6 N 1018,3 - 0,0
21.04.2018 21:00:00 19,2 7,9 12 6 14 7 ZW 1017,9 - 0,0
21.04.2018 20:00:00 19,7 12,7 7 4 9 5 ZZW 1017,5 - 0,0
21.04.2018 19:00:00 22,3 9,8 5 3 10 5 Z 1017,4 - 0,0
21.04.2018 18:00:00 22,0 10,8 6 3 11 6 Z 1017,6 - 0,0
21.04.2018 17:00:00 22,8 9,6 6 4 16 8 ZO 1017,8 20 0,0
21.04.2018 16:00:00 22,8 11,2 6 3 16 9 ZZO 1018,3 - 0,0
21.04.2018 15:00:00 23,1 13,0 11 6 24 13 ONO 1018,7 - 0,0
21.04.2018 14:00:00 25,1 13,3 16 8 33 18 NNO 1018,6 - 0,0
21.04.2018 13:00:00 24,5 11,4 26 14 35 19 NO 1018,8 - 0,0
21.04.2018 12:00:00 24,7 12,9 22 12 36 19 NNO 1019,2 - 0,0
21.04.2018 11:00:00 24,3 12,3 24 13 37 20 NNO 1019,2 20 0,0
21.04.2018 10:00:00 23,7 10,7 27 15 38 20 NNO 1019,0 - 0,0
21.04.2018 09:00:00 22,5 10,3 24 13 33 18 NNO 1018,9 - 0,0
21.04.2018 08:00:00 19,1 8,1 16 8 27 14 N 1018,9 20 0,0
21.04.2018 07:00:00 19,1 6,9 16 9 27 15 N 1018,6 - 0,0
21.04.2018 06:00:00 19,6 7,0 19 10 28 15 NNW 1018,4 - 0,0
21.04.2018 05:00:00 20,0 7,0 20 11 29 16 NNW 1018,6 15 0,0
21.04.2018 04:00:00 19,9 7,3 19 10 28 15 N 1018,8 - 0,0
21.04.2018 03:00:00 19,9 7,3 18 10 29 16 N 1018,9 - 0,0
21.04.2018 02:00:00 20,9 6,4 16 8 21 11 NNW 1019,2 - 0,0
21.04.2018 01:00:00 21,5 5,8 9 5 16 9 WZW 1019,5 - 0,0
21.04.2018 00:00:00 19,3 6,7 13 7 18 10 WZW 1019,7 - 0,0
20.04.2018 23:00:00 20,0 6,7 14 8 24 13 NNW 1019,8 - 0,0
20.04.2018 22:00:00 19,1 7,5 19 11 24 13 N 1019,9 - 0,0
20.04.2018 21:00:00 20,8 9,4 6 4 13 7 WZW 1019,8 - 0,0
20.04.2018 20:00:00 20,6 10,1 10 6 16 9 ZW 1019,4 20 0,0
20.04.2018 19:00:00 22,7 9,8 11 6 19 11 NNO 1019,3 - 0,0
20.04.2018 18:00:00 24,7 9,8 11 6 34 18 N 1019,5 - 0,0
20.04.2018 17:00:00 24,9 10,0 23 12 31 17 N 1019,9 20 0,0
20.04.2018 16:00:00 26,0 11,0 19 10 31 17 NNO 1020,3 - 0,0
20.04.2018 15:00:00 26,1 12,2 23 12 42 23 NNO 1021,0 - 0,0
20.04.2018 14:00:00 25,3 10,7 29 16 44 24 NNO 1021,4 - 0,0
20.04.2018 13:00:00 24,8 11,7 30 16 48 26 N 1021,8 - 0,0
20.04.2018 12:00:00 24,2 11,8 31 17 45 24 NNO 1021,9 - 0,0
20.04.2018 11:00:00 24,0 12,9 27 15 41 22 NNO 1022,1 18 0,0
20.04.2018 10:00:00 22,7 11,1 31 17 44 24 N 1021,9 - 0,0
20.04.2018 09:00:00 21,5 12,1 16 9 26 14 N 1022,1 - 0,0
20.04.2018 08:00:00 18,0 9,9 16 9 28 15 N 1022,2 18 0,0
20.04.2018 07:00:00 16,7 8,9 16 9 25 14 N 1022,2 - 0,0
20.04.2018 06:00:00 17,5 8,4 19 11 28 15 NNW 1022,1 - 0,0
20.04.2018 05:00:00 16,8 8,5 16 9 22 12 N 1022,3 18 0,0
20.04.2018 04:00:00 17,8 8,6 14 7 21 11 NNW 1022,4 - 0,0
20.04.2018 03:00:00 17,4 8,5 4 2 13 7 W 1022,6 - 0,0
20.04.2018 02:00:00 15,7 8,9 5 3 16 9 NW 1023,2 - 0,0
20.04.2018 01:00:00 18,1 8,4 13 7 18 10 N 1023,5 - 0,0
20.04.2018 00:00:00 18,4 8,4 14 7 18 10 NNW 1023,6 - 0,0
19.04.2018 23:00:00 18,6 8,3 16 8 17 9 NW 1023,9 - 0,0
19.04.2018 22:00:00 17,1 10,0 8 4 10 5 W 1024,2 - 0,0
19.04.2018 21:00:00 17,2 9,4 2 1 6 3 ONO 1024,3 - 0,0
19.04.2018 20:00:00 18,0 9,3 0 0 7 4 N 1023,7 - 0,0
19.04.2018 19:00:00 19,3 12,1 6 3 13 7 OZO 1023,7 - 0,0
19.04.2018 18:00:00 23,5 9,8 8 4 14 7 N 1023,7 - 0,0
19.04.2018 17:00:00 23,0 10,4 9 5 18 10 NO 1024,1 20 0,0
19.04.2018 16:00:00 22,5 8,9 16 8 23 12 NO 1024,4 - 0,0
19.04.2018 15:00:00 23,4 11,1 14 8 24 13 NO 1025,0 - 0,0
19.04.2018 14:00:00 23,1 10,2 16 8 27 14 NO 1025,6 - 0,0
19.04.2018 13:00:00 21,9 9,8 16 9 29 16 NO 1025,9 - 0,0
19.04.2018 12:00:00 23,7 10,7 19 11 29 16 NNO 1025,8 - 0,0
19.04.2018 11:00:00 22,6 10,1 20 11 29 16 NO 1025,9 - 0,0
19.04.2018 10:00:00 21,8 10,0 16 9 24 13 NNO 1025,9 - 0,0
19.04.2018 09:00:00 19,7 9,6 18 10 28 15 N 1025,8 - 0,0
19.04.2018 08:00:00 16,6 8,3 16 8 27 15 N 1025,8 20 0,0
19.04.2018 07:00:00 15,6 7,6 22 12 29 16 N 1025,3 - 0,0
19.04.2018 06:00:00 16,1 7,8 18 10 27 15 N 1025,1 - 0,0
19.04.2018 05:00:00 16,2 8,2 21 11 29 16 NNW 1025,1 18 0,0
19.04.2018 04:00:00 16,6 8,3 20 11 28 15 N 1025,4 - 0,0
19.04.2018 03:00:00 17,4 8,0 16 8 22 12 N 1025,4 - 0,0
19.04.2018 02:00:00 18,2 7,9 16 8 24 13 NNW 1025,8 - 0,0
19.04.2018 01:00:00 18,2 8,2 18 10 23 13 NNW 1025,9 - 0,0
19.04.2018 00:00:00 18,3 8,3 16 9 30 16 NNW 1025,9 - 0,0
18.04.2018 23:00:00 17,8 8,1 17 9 22 12 N 1026,0 - 0,0
18.04.2018 22:00:00 18,2 8,2 11 6 23 12 N 1025,9 - 0,0
18.04.2018 21:00:00 19,0 8,0 16 8 23 13 NNW 1025,3 - 0,0
18.04.2018 20:00:00 18,8 8,4 14 8 23 12 N 1024,8 - 0,0
18.04.2018 19:00:00 20,6 9,5 16 8 27 15 N 1024,5 - 0,0
18.04.2018 18:00:00 22,1 11,5 22 12 32 17 N 1024,5 - 0,0
18.04.2018 17:00:00 23,5 10,2 20 11 33 18 NNO 1024,5 - 0,0
18.04.2018 16:00:00 23,3 11,7 19 10 36 19 N 1024,5 - 0,0
18.04.2018 15:00:00 22,2 12,2 23 12 38 21 NNO 1025,0 - 0,0
18.04.2018 14:00:00 22,5 10,9 25 14 37 20 N 1025,3 20 0,0
18.04.2018 13:00:00 23,0 10,4 23 13 39 21 N 1025,5 - 0,0
18.04.2018 12:00:00 22,0 10,5 21 11 39 21 N 1025,6 - 0,0
18.04.2018 11:00:00 23,0 11,1 21 12 40 21 N 1025,4 15 0,0
18.04.2018 10:00:00 21,8 10,9 27 15 44 24 N 1025,1 - 0,0

tt = temperatuur
td = dauwpunt
ff = windsnelheid
fx = windstoten
dd = windrichting
ppp = luchtdruk
vv = zicht
rr = neerslag

Weerstations in de omgeving